Regional Weather Roundup
Issued by NWS

Home | Current Version | Previous Version | Text Only | Print | Product List | Glossary Off
Versions: 1 2 3 4 5 6 7 8 9 10 11 12 13 14 15 16 17 18 19 20 21 22 23 24 25 26 27 28 29 30 31 32 33 34 35 36 37 38 39 40 41 42 43 44 45 46 47 48 49 50

000
ASUS43 KMPX 212301
RWRMN
WEATHER ROUNDUP FOR MINNESOTA
NATIONAL WEATHER SERVICE TWIN CITIES/CHANHASSEN MN
600 PM CDT SUN SEP 21 2014


NOTE: "FAIR" INDICATES FEW OR NO CLOUDS BELOW 12,000 FEET WITH NO
SIGNIFICANT WEATHER AND/OR OBSTRUCTIONS TO VISIBILITY. N/A MEANS
CURRENT SKY AND/OR WEATHER CONDITIONS ARE NOT AVAILABLE.

MNZ060>063-068>070-220000-
   Twin Cities Metro

CITY           SKY/WX    TMP DP  RH WIND       PRES   REMARKS
TWIN CITIES    MOSUNNY   66  45  46 NW10G20   30.15S
ST PAUL        SUNNY     65  46  50 N13       30.16R
CRYSTAL        SUNNY     68  45  43 NW12      30.15S
LAKEVILLE      SUNNY     64  46  52 NW8G20    30.16R
EDEN PRAIRIE   SUNNY     66  47  50 NW7       30.15S
SOUTH ST PAUL  SUNNY     66  44  45 N7        30.15S
LAKE ELMO      FAIR      63  46  55 N5G24     30.17R
$$
MNZ001>005-007-008-013>017-022>024-027-028-220000-
   Northwest Minnesota

CITY           SKY/WX    TMP DP  RH WIND       PRES   REMARKS
BEMIDJI        MOSUNNY   59  48  68 W13       30.19S
HALLOCK        SUNNY     64  48  55 W3        30.18S
ROSEAU         MOSUNNY   61  52  72 W3        30.18S
WARROAD        SUNNY     59  52  77 W5        30.18F
THIEF RVR FALL CLOUDY    59  50  72 W7        30.20S
CROOKSTON      SUNNY     63  48  59 NW3       30.20F
FOSSTON        CLOUDY    55  48  76 CALM      30.22S
DETROIT LAKES  SUNNY     59  48  67 N7        30.23F
MOORHEAD       SUNNY     63  54  72 NE5       30.21F
PARK RAPIDS    SUNNY     58  47  66 NW13      30.20S
MAHNOMEN       FAIR      58  47  67 NW6       30.22S
$$
MNZ006-009>011-018-025>026-220000-
   North Central Minnesota

CITY           SKY/WX    TMP DP  RH WIND       PRES   REMARKS
BAUDETTE       PTSUNNY   59  50  72 NW9       30.17R
FLAG ISLAND    SUNNY     57  50  77 W8        30.14F
INTL FALLS     MOSUNNY   58  48  69 NW7       30.15S
WASKISH        CLOUDY    59  54  82 SW7       30.18R
BIG FORK       PTSUNNY   63  48  59 CALM      30.17S
LONGVILLE      SUNNY     61  48  63 NW6       30.18S
GRAND RAPIDS   MOSUNNY   61  45  55 NW8       30.17F
CRANE LAKE     SUNNY     57  43  58 CALM      30.17R
ORR            PTSUNNY   61  43  51 CALM      30.13R
COOK           SUNNY     61  45  55 NW3       30.16R
WALKER         FAIR      60  48  64 W9        30.18S
$$
MNZ012-019>021-037-220000-
   Northeast Minnesota

CITY           SKY/WX    TMP DP  RH WIND       PRES   REMARKS
DULUTH         MOSUNNY   62  40  44 N10       30.13R
ELY            SUNNY     57  43  58 NW7       30.14R
HIBBING        MOSUNNY   62  44  51 N10       30.15S
EVELETH        SUNNY     59  41  51 NW8       30.15S
DULUTH HARBOR  SUNNY     63  45  51 NW5       30.13S
TWO HARBORS    SUNNY     61  43  51 N5        30.11R
SILVER BAY     SUNNY     57  45  62 NW5       30.11R
GRAND MARAIS     N/A     51  47  86 SW3       30.10R
G MARAIS ARPRT CLEAR     54  36  50 NW7       30.11S
$$
MNZ029>031-032-039>041-046>048-054>057-064-220000-
   West Central Minnesota

CITY           SKY/WX    TMP DP  RH WIND       PRES   REMARKS
FERGUS FALLS   SUNNY     63  46  55 N6        30.22S
WHEATON        MOSUNNY   64  48  55 N9        30.23S
MORRIS         SUNNY     64  48  55 N12       30.21S
ALEXANDRIA     MOSUNNY   60  49  66 N8        30.23S
ELBOW LAKE     FAIR      61  49  66 N7        30.21F
WADENA         MOSUNNY   57  48  72 NW6       30.22R
GLENWOOD       SUNNY     61  48  63 N7        30.23R
APPLETON       SUNNY     66  48  52 N9        30.21S
BENSON         MOSUNNY   63  48  59 N9        30.22S
ORTONVILLE     SUNNY     66  46  48 N7        30.22R
MADISON        SUNNY     68  48  49 N10       30.22S
WILLMAR        FAIR      64  48  55 N10       30.23S
$$
MNZ033>034-036-042>043-049>051-058-059-220000-
   Central Minnesota

CITY           SKY/WX    TMP DP  RH WIND       PRES   REMARKS
ST CLOUD       MOSUNNY   66  48  52 NW7       30.17R
SAUK CENTRE    FAIR      60  49  69 NW14      30.22R
PAYNESVILLE    SUNNY     59  49  68 W10       30.21S
AITKIN         SUNNY     64  48  55 NW5       30.16S
PINE RIVER     MOSUNNY   61  50  67 NW5       30.21F
BRAINERD       SUNNY     61  47  59 N8        30.19R
STAPLES        MOSUNNY   61  48  63 NW9       30.20S
LONG PRAIRIE   FAIR      59  48  67 W9        30.21S
LITTLE FALLS   PTSUNNY   63  46  55 NW10G20   30.19R
LITCHFIELD     MOSUNNY   64  52  63 NW9       30.20S
BUFFALO        MOSUNNY   65  46  49 NW8       30.18S
MAPLE LAKE     SUNNY     65  51  59 NW6       30.18S
$$
MNZ037-044-045-052-053-220000-
   East Central Minnesota

CITY           SKY/WX    TMP DP  RH WIND       PRES   REMARKS
PRINCETON      SUNNY     66  46  48 NW8       30.17
MORA           SUNNY     61  45  55 NW9       30.18R
CAMBRIDGE      SUNNY     66  48  52 NW6       30.15R
RUSH CITY      SUNNY     63  45  52 NW5       30.16S
MOOSE LAKE     SUNNY     63  45  51 NW6       30.14R
HINCKLEY       FAIR      63  46  55 NW6       30.15S
CLOQUET        SUNNY     63  41  45 NW9       30.14S
MCGREGOR       MOSUNNY   61  46  59 NW8       30.17R
$$
MNZ071>073-080-081-089-090-097-098-220000-
   Southwest Minnesota

CITY           SKY/WX    TMP DP  RH WIND       PRES   REMARKS
MONTEVIDEO     SUNNY     66  50  55 NE10G17   30.23R
GRANITE FALLS  SUNNY     64  49  58 N10       30.23S
CANBY          SUNNY     66  49  54 N6        30.23S
MARSHALL       SUNNY     66  45  45 N13       30.21S
REDWOOD FALLS  PTSUNNY   65  49  56 NW7       30.21R
OLIVIA         PTSUNNY   63  48  59 N10       30.21R
PIPESTONE      SUNNY     66  45  45 N8        30.23R
WINDOM         SUNNY     64  48  55 N14       30.22R
WORTHINGTON    SUNNY     64  45  48 N12       30.23S
JACKSON        MOSUNNY   64  45  48 N8        30.22R
TRACY          MOSUNNY   66  49  53 N14       30.23R
SLAYTON        MOSUNNY   64  45  49 N14       30.23S
$$
MNZ065>067-074>077-082>085-091>093-220000-
   South Central Minnesota

CITY           SKY/WX    TMP DP  RH WIND       PRES   REMARKS
MANKATO        MOSUNNY   64  45  48 N14G20    30.19R
NEW ULM        MOSUNNY   63  48  59 N10G16    30.19S
ST JAMES       PTSUNNY   66  48  52 NW10G16   30.21S
FAIRMONT       MOSUNNY   64  46  52 N9G17     30.20S
GLENCOE        MOSUNNY   65  48  53 NW9G17    30.18S
FARIBAULT      SUNNY     66  45  45 NW8       30.17R
OWATONNA       SUNNY     63  48  59 NW8       30.17R
WASECA         MOSUNNY   61  43  51 NW13      30.19S
ALBERT LEA     PTSUNNY   64  48  55 NW10      30.17R
$$
MNZ078>079-086>088-094>096-220000-
   Southeast Minnesota

CITY           SKY/WX    TMP DP  RH WIND       PRES   REMARKS
ROCHESTER      MOSUNNY   62  46  55 N10       30.17R
RED WING       SUNNY     64  43  45 N8        30.15R
STANTON        SUNNY     65  45  48 NW12      30.15R
DODGE CENTER   SUNNY     63  46  55 NW15      30.17R
WINONA         SUNNY     63  46  55 N8        30.13R
AUSTIN         MOSUNNY   63  46  55 NW13      30.16R
PRESTON        MOSUNNY   60  50  69 N14       30.15R
$$
ABBREVIATIONS USED IN REMARKS
   TC - TEMPERATURES IN CELSIUS
  WCI - WIND CHILL INDEX
   HX - HEAT INDEX
  VSB - VISIBILITY
$$



USA.gov is the U.S. government's official web portal to all federal, state and local government web resources and services.